Wind_Speed
40 42 43 44 45 45 45 46 47 47 48 49 51 52 53 54 55 56 57 58 59 61 62 64 65 67 68 69 69 69 70 71 71 72 72 73 73 73
41 43 44 45 45 45 47 48 49 50 50 51 52 54 55 56 57 58 60 61 63 65 67 68 69 69 69 69 68 69 70 71 71 72 72 73 73 72
43 43 44 44 45 47 48 49 50 52 52 53 55 56 57 58 60 61 63 65 67 68 69 70 69 69 68 68 69 70 70 70 70 70 70 69 68 68
43 43 44 45 46 48 49 51 52 53 55 56 57 58 59 61 62 64 66 68 69 70 70 69 69 69 69 70 70 70 69 69 69 67 65 64 64 63
43 44 45 46 47 49 51 52 54 56 58 58 59 60 61 64 65 66 67 69 70 70 70 70 70 70 70 70 69 69 68 66 64 62 61 60 60 59
43 44 45 47 49 50 52 54 56 58 59 60 61 62 64 65 67 67 68 69 70 71 70 71 70 70 69 68 67 66 64 61 59 57 55 54 53 53
43 45 47 48 50 52 54 56 57 59 60 62 63 64 65 67 67 69 69 69 69 69 69 69 68 67 67 65 63 60 57 55 53 51 50 49 48 47
44 46 48 50 52 53 55 57 58 60 62 63 64 66 67 67 68 69 69 69 67 66 66 64 65 63 62 60 58 54 52 50 48 47 45 44 43 41
45 47 49 51 53 54 55 57 60 62 63 65 66 67 67 67 68 68 68 67 66 65 64 62 61 59 58 56 53 50 48 46 44 42 40 38 36 35
46 48 50 52 53 55 56 58 60 62 64 65 66 66 66 67 67 67 67 66 65 65 64 60 57 55 53 50 48 46 44 42 39 37 35 33 31 29
47 49 51 52 54 56 57 59 61 63 64 65 65 65 66 66 67 67 67 66 64 62 60 58 54 50 47 46 45 42 39 36 33 31 28 27 25 24
48 50 51 53 55 57 59 61 62 63 63 63 63 64 65 66 66 67 67 65 62 58 56 53 50 46 41 41 40 37 33 30 28 26 24 23 22 21
49 50 52 54 56 58 60 61 62 62 62 62 63 64 64 64 65 65 64 61 58 55 52 48 44 41 39 36 34 31 28 26 24 23 22 21 20 18
49 50 52 54 57 59 60 61 62 62 61 62 62 63 63 63 63 62 59 57 54 51 47 43 40 38 35 32 29 26 25 23 21 20 19 18 17 16
49 51 53 56 58 59 60 61 60 60 61 61 61 62 62 61 60 58 55 52 49 46 42 39 36 34 31 28 26 23 22 21 19 18 17 16 15 15
50 52 55 57 58 59 59 59 59 59 60 60 61 61 60 59 56 53 49 46 44 41 39 36 33 30 27 25 23 21 20 19 17 16 15 14 13 13
51 53 55 56 57 58 58 58 58 59 60 60 60 59 58 55 51 48 45 42 40 38 36 33 30 27 25 23 21 21 19 16 15 14 13 13 11 11
52 54 55 56 56 57 57 58 58 59 60 60 58 56 53 50 46 44 42 40 37 35 33 29 26 24 23 22 20 18 16 14 13 12 11 11 10 9
53 54 54 55 56 57 57 58 58 59 59 57 54 50 48 45 43 41 39 37 35 32 29 25 23 22 21 20 18 16 14 13 11 10 10 9 8 7
53 54 54 55 55 56 57 57 57 57 55 52 48 45 44 42 40 38 36 34 32 29 25 23 21 20 19 17 16 14 13 11 9 9 8 8 7 6
53 53 54 55 56 56 56 56 55 53 51 48 45 43 42 41 38 35 33 32 29 25 22 21 19 18 17 16 14 12 11 10 8 8 8 7 6 6
53 54 54 55 56 55 55 54 52 49 47 44 42 41 40 38 36 33 31 29 26 22 20 19 17 16 15 14 12 10 9 8 7 7 6 6 6 6
53 54 54 55 55 55 53 51 48 46 44 42 41 40 38 36 34 32 29 26 22 20 18 17 16 15 13 12 10 9 8 7 6 5 5 5 5 5
Wind_Direction
296 298 300 301 302 303 304 305 305 305 306 306 306 306 306 305 305 305 304 304 303 301 300 299 298 296 295 294 293 292 290 289 288 286 284 282 280 278
296 298 300 301 302 303 304 304 305 305 306 306 306 306 306 306 306 305 305 304 304 302 301 300 298 297 296 295 294 293 292 291 289 287 285 283 281 279
297 299 300 301 302 303 304 304 305 306 306 307 307 307 307 307 307 307 306 305 305 304 302 301 299 298 297 297 296 295 294 292 291 289 288 285 283 280
297 299 300 301 302 303 304 305 305 306 307 308 308 308 308 308 307 307 306 306 305 305 303 301 300 299 299 298 297 296 295 293 292 290 288 286 284 282
297 298 300 301 302 303 304 305 306 307 308 308 308 308 308 308 308 307 307 307 306 306 304 303 302 301 300 299 298 297 296 295 293 291 289 287 285 283
297 299 300 301 303 304 305 305 306 307 308 308 309 309 309 308 308 308 308 308 307 306 305 304 302 302 301 300 300 299 298 296 294 292 291 289 287 285
298 299 300 302 303 304 305 305 307 308 308 309 309 309 309 309 309 309 309 309 308 308 307 306 304 303 303 303 302 300 299 297 295 294 292 290 289 287
298 299 301 302 303 304 305 306 308 309 309 309 309 309 309 309 310 310 311 310 310 310 309 308 306 305 304 304 303 302 300 299 297 295 294 293 291 289
299 300 301 303 304 305 306 307 309 310 310 310 310 310 310 311 311 312 312 312 312 311 311 310 309 308 306 305 304 303 302 302 300 297 296 294 293 291
300 301 302 304 305 306 307 308 310 310 309 309 310 311 311 312 313 313 313 313 313 312 312 312 310 309 308 306 306 306 305 304 301 299 297 296 294 293
301 302 303 304 306 307 308 309 310 310 309 310 311 312 312 313 313 314 314 314 313 312 312 312 311 310 308 307 308 308 307 305 303 302 300 299 297 295
302 303 304 305 306 308 309 310 310 310 310 311 311 312 313 313 314 314 314 314 314 313 313 313 312 311 310 309 309 310 309 307 305 304 303 301 300 298
303 304 305 306 308 309 310 310 310 310 311 311 312 313 314 314 314 315 315 315 315 315 315 315 314 314 314 313 312 311 310 309 308 306 304 304 302 300
304 305 306 307 309 310 310 310 311 311 312 312 313 314 314 314 315 316 316 316 316 316 316 316 316 316 316 316 315 312 311 311 310 308 307 307 304 303
305 306 307 309 310 310 310 311 311 312 312 313 314 314 315 315 315 316 316 316 317 317 317 317 317 318 318 318 316 314 313 312 310 310 310 309 307 306
307 308 309 310 311 311 311 312 312 313 313 314 315 315 315 316 316 316 317 317 317 318 319 319 319 319 320 320 318 317 315 312 311 311 311 310 309 308
308 309 310 311 312 312 312 312 313 314 314 315 315 316 316 316 317 317 317 317 317 318 319 319 319 320 321 321 319 318 317 315 313 313 313 314 313 312
310 311 311 312 312 313 313 313 313 314 315 315 315 316 316 317 317 317 317 317 317 319 319 318 319 320 321 322 321 320 318 318 317 316 318 320 320 319
311 311 311 312 313 313 314 314 314 315 315 316 316 317 317 318 319 318 318 318 318 319 318 317 318 319 321 321 322 322 321 322 322 321 323 324 324 325
311 312 312 313 314 314 315 315 315 316 317 317 317 317 318 319 319 319 319 320 320 319 318 318 318 319 321 322 322 321 322 325 325 326 329 330 330 329
312 313 313 314 315 315 315 316 316 317 317 317 317 318 319 319 319 320 320 320 320 319 318 319 320 320 321 321 321 320 323 326 328 330 333 335 336 334
313 313 313 314 315 315 316 316 316 317 317 317 317 318 319 319 319 320 320 319 319 318 318 319 320 321 322 322 322 321 325 329 332 336 340 343 341 339
313 313 313 314 315 316 316 316 316 317 317 317 317 318 318 318 318 319 319 318 317 317 318 319 319 320 322 324 323 325 329 334 338 342 348 352 354 357
Height
5704 5700 5697 5693 5688 5684 5680 5675 5672 5667 5664 5658 5651 5645 5639 5633 5627 5622 5616 5610 5604 5598 5592 5586 5580 5573 5567 5561 5556 5550 5545 5539 5534 5530 5525 5522 5518 5515
5695 5691 5688 5683 5679 5675 5670 5665 5660 5656 5652 5647 5640 5633 5627 5620 5614 5608 5601 5595 5588 5581 5573 5566 5560 5553 5547 5540 5534 5528 5522 5516 5510 5505 5500 5496 5493 5489
5686 5682 5678 5674 5670 5665 5660 5655 5650 5644 5640 5635 5628 5621 5614 5607 5600 5593 5585 5578 5570 5562 5554 5546 5539 5532 5526 5519 5513 5506 5500 5493 5487 5482 5477 5472 5468 5466
5677 5673 5669 5664 5660 5655 5650 5644 5638 5633 5627 5622 5616 5608 5601 5593 5586 5578 5569 5561 5552 5543 5534 5526 5518 5511 5505 5498 5491 5485 5478 5471 5465 5459 5454 5450 5446 5443
5668 5664 5659 5655 5650 5645 5639 5633 5627 5621 5614 5608 5602 5594 5587 5578 5570 5562 5553 5543 5534 5524 5515 5506 5498 5491 5484 5477 5470 5463 5457 5450 5444 5438 5433 5429 5425 5422
5659 5654 5649 5645 5640 5634 5628 5622 5615 5608 5601 5594 5588 5580 5572 5563 5554 5545 5537 5527 5517 5507 5496 5487 5478 5470 5463 5456 5450 5443 5436 5429 5424 5419 5414 5410 5406 5403
5649 5644 5639 5634 5629 5623 5617 5610 5603 5596 5588 5581 5573 5565 5556 5547 5538 5528 5520 5511 5501 5489 5479 5469 5459 5452 5443 5436 5429 5423 5417 5411 5406 5402 5397 5393 5390 5386
5639 5634 5629 5624 5618 5611 5605 5597 5590 5582 5575 5567 5558 5549 5540 5530 5521 5511 5501 5493 5485 5475 5464 5455 5443 5435 5426 5419 5412 5406 5401 5396 5391 5387 5382 5378 5375 5371
5629 5624 5619 5613 5606 5600 5593 5586 5577 5568 5560 5552 5543 5534 5524 5515 5506 5497 5486 5475 5466 5456 5447 5440 5429 5420 5411 5404 5397 5392 5387 5382 5377 5373 5369 5366 5362 5359
5619 5613 5608 5601 5595 5588 5582 5574 5565 5556 5547 5538 5529 5519 5509 5499 5489 5480 5470 5462 5452 5441 5430 5424 5416 5407 5399 5390 5384 5380 5375 5370 5366 5362 5359 5356 5353 5350
5608 5602 5596 5590 5583 5577 5570 5562 5553 5543 5533 5523 5514 5504 5494 5484 5474 5465 5455 5446 5438 5428 5417 5409 5402 5396 5389 5380 5374 5369 5364 5360 5356 5353 5350 5347 5345 5342
5598 5592 5585 5579 5571 5564 5556 5548 5539 5530 5520 5511 5501 5491 5480 5470 5459 5449 5440 5431 5422 5414 5406 5397 5390 5383 5379 5373 5365 5360 5356 5352 5349 5346 5343 5340 5338 5336
5586 5580 5573 5567 5559 5551 5543 5534 5525 5516 5507 5498 5488 5478 5468 5457 5447 5436 5426 5417 5408 5400 5393 5386 5380 5373 5368 5364 5359 5353 5349 5346 5343 5340 5337 5335 5333 5331
5575 5569 5562 5555 5547 5539 5530 5521 5511 5502 5493 5484 5475 5465 5455 5445 5435 5425 5415 5405 5397 5390 5382 5376 5370 5365 5360 5356 5352 5348 5343 5340 5338 5335 5332 5330 5328 5326
5564 5557 5550 5543 5534 5525 5516 5507 5498 5489 5480 5471 5462 5453 5443 5433 5423 5414 5405 5396 5388 5380 5374 5368 5363 5358 5353 5349 5345 5342 5339 5336 5333 5331 5329 5326 5325 5323
5552 5545 5538 5530 5521 5512 5503 5494 5485 5476 5467 5459 5450 5440 5430 5421 5412 5403 5395 5387 5380 5373 5367 5361 5356 5352 5347 5344 5340 5337 5334 5332 5329 5327 5325 5323 5322 5320
5540 5534 5526 5518 5509 5500 5491 5482 5473 5464 5455 5446 5437 5428 5418 5409 5401 5393 5386 5379 5373 5367 5361 5356 5351 5346 5343 5340 5336 5333 5330 5328 5326 5324 5322 5321 5319 5318
5529 5522 5514 5505 5497 5488 5479 5470 5461 5452 5443 5434 5425 5416 5407 5399 5391 5384 5377 5371 5366 5360 5355 5350 5346 5343 5339 5336 5333 5330 5327 5325 5323 5322 5320 5318 5317 5316
5517 5509 5501 5493 5484 5476 5467 5458 5449 5440 5431 5422 5413 5405 5397 5390 5383 5376 5370 5364 5359 5354 5349 5345 5342 5339 5336 5333 5330 5327 5325 5323 5321 5320 5318 5317 5316 5315
5504 5497 5489 5481 5472 5463 5455 5446 5437 5428 5419 5410 5402 5395 5388 5382 5375 5369 5363 5357 5353 5348 5344 5341 5338 5335 5333 5330 5327 5325 5323 5322 5320 5318 5317 5316 5315 5314
5492 5484 5477 5468 5460 5451 5443 5434 5425 5417 5409 5401 5394 5387 5380 5374 5368 5362 5357 5352 5347 5343 5340 5337 5334 5332 5329 5327 5325 5323 5322 5320 5319 5317 5316 5315 5314 5314
5480 5472 5464 5456 5448 5439 5431 5423 5415 5407 5399 5392 5386 5379 5373 5367 5361 5356 5351 5347 5342 5339 5336 5334 5331 5329 5327 5325 5323 5322 5320 5319 5318 5317 5316 5315 5314 5313
5468 5460 5452 5444 5436 5428 5419 5412 5404 5397 5390 5384 5378 5372 5366 5360 5355 5350 5346 5341 5338 5335 5333 5330 5328 5326 5325 5323 5322 5320 5319 5318 5317 5316 5316 5315 5314 5313